Weather History for Du Bois, PA

Change the Weather History Date:

Tuesday, November 8, 2011

  Actual Average Record
Temperature  
Mean Temperature 54 °F 42 °F  
Max Temperature 68 °F 50 °F 68 °F (2011)
Min Temperature 40 °F 34 °F 16 °F (1976)
Degree Days  
Heating Degree Days 11 23  
Month to date heating degree days 136 175  
Since 1 July heating degree days 461 918  
Cooling Degree Days 0 0  
Month to date cooling degree days 0 0  
Year to date cooling degree days 0 362  
Growing Degree Days 5 (Base 50)    
Moisture  
Dew Point 37 °F    
Average Humidity 60    
Maximum Humidity 89    
Minimum Humidity 31    
Precipitation  
Precipitation 0.00 in 0.12 in 1.99 in (1997)
Month to date precipitation 0.00 0.95  
Sea Level Pressure  
Sea Level Pressure 30.21 in    
Wind  
Wind Speed 4 mph (SSE)    
Max Wind Speed 13 mph    
Max Gust Speed 17 mph    
Visibility 10 miles    
Events      
T = Trace of Precipitation, MM = Missing Value Source: NWS Daily Summary

Daily Weather History Graph

Daily Weather History Graph

Search for Another Location

Airport:

Trip Planner

Search our weather history database for the weather conditions in past years. The results will help you decide how hot, cold, wet, or windy it might be!

Date:

Astronomy

Nov. 08, 2011 Rise Set
Actual Time 6:54 AM EST 5:03 PM EST
Civil Twilight 6:25 AM EST 5:32 PM EST
Nautical Twilight 5:52 AM EST 6:05 PM EST
Astronomical Twilight 5:20 AM EST 6:37 PM EST
Moon 3:42 PM EST (11/8) 4:51 AM EST (11/8)
Length of Visible Light 11h 06m
Length of Day
10h 08m
Waxing Gibbous, 96% of the Moon is Illuminated
Nov 8
Waxing Gibbous
Nov 10
Full
Nov 18
Last Quarter
Nov 25
New
Dec 2
First Quarter

Hourly Weather History & Observations

Time (EST) Temp. Windchill Dew Point Humidity Pressure Visibility Wind Dir Wind Speed Gust Speed Precip Events Conditions
12:56 AM 46.9 °F - 39.9 °F 77% 30.28 in 10.0 mi Calm Calm - N/A   Clear
1:56 AM 46.9 °F - 39.0 °F 74% 30.27 in 10.0 mi Calm Calm - N/A   Clear
2:56 AM 46.9 °F - 37.9 °F 71% 30.26 in 10.0 mi Calm Calm - N/A   Clear
3:56 AM 44.1 °F - 39.0 °F 82% 30.25 in 10.0 mi Calm Calm - N/A   Clear
4:56 AM 43.0 °F - 37.0 °F 80% 30.26 in 10.0 mi Calm Calm - N/A   Clear
5:56 AM 42.1 °F 39.2 °F 39.0 °F 89% 30.27 in 10.0 mi East 4.6 mph - N/A   Clear
6:56 AM 42.1 °F 40.2 °F 37.0 °F 82% 30.28 in 10.0 mi East 3.5 mph - N/A   Clear
7:56 AM 45.0 °F 43.5 °F 39.9 °F 82% 30.28 in 10.0 mi SE 3.5 mph - N/A   Clear
8:56 AM 51.1 °F - 42.1 °F 71% 30.27 in 10.0 mi Calm Calm - N/A   Clear
9:56 AM 55.9 °F - 41.0 °F 57% 30.26 in 10.0 mi Calm Calm - N/A   Clear
10:56 AM 60.1 °F - 41.0 °F 49% 30.24 in 10.0 mi Variable 4.6 mph - N/A   Clear
11:56 AM 63.0 °F - 39.9 °F 43% 30.21 in 10.0 mi South 6.9 mph - N/A   Clear
12:56 PM 64.9 °F - 39.0 °F 39% 30.19 in 10.0 mi South 8.1 mph - N/A   Clear
1:56 PM 66.0 °F - 37.9 °F 36% 30.16 in 10.0 mi SSE 8.1 mph - N/A   Clear
2:56 PM 68.0 °F - 37.0 °F 32% 30.14 in 10.0 mi South 8.1 mph - N/A   Clear
3:56 PM 66.9 °F - 35.1 °F 31% 30.14 in 10.0 mi South 6.9 mph - N/A   Clear
4:56 PM 64.0 °F - 34.0 °F 33% 30.15 in 10.0 mi Calm Calm - N/A   Clear
5:56 PM 57.9 °F - 36.0 °F 44% 30.16 in 10.0 mi SE 6.9 mph - N/A   Clear
6:56 PM 57.9 °F - 35.1 °F 42% 30.17 in 10.0 mi SSE 4.6 mph - N/A   Clear
7:56 PM 55.9 °F - 34.0 °F 44% 30.17 in 10.0 mi SSE 3.5 mph - N/A   Clear
8:56 PM 55.0 °F - 33.1 °F 43% 30.17 in 10.0 mi SSE 4.6 mph - N/A   Clear
9:56 PM 51.8 °F - 33.8 °F 50% 30.16 in 10.0 mi SSE 4.6 mph - N/A   Clear
10:56 PM 51.1 °F - 33.1 °F 50% 30.14 in 10.0 mi SE 4.6 mph - N/A   Clear
11:56 PM 48.0 °F - 33.1 °F 56% 30.13 in 10.0 mi SE 5.8 mph - N/A   Clear